Regional Weather Roundup
Issued by NWS Albany, NY

Current Version | Previous Version | Text Only | Print | Product List | Glossary On
Versions: 1 2 3 4 5 6 7 8 9 10 11 12 13 14 15 16 17 18 19 20 21 22 23 24 25 26 27 28 29 30 31 32 33 34 35 36 37 38 39 40 41 42 43 44 45 46 47 48 49 50
000
ASUS41 KALY 280410
RWRALY

NEW YORK STATE HOURLY WEATHER ROUNDUP
NATIONAL WEATHER SERVICE ALBANY NY
1100 PM EST TUE JAN 27 2015

NOTE: "FAIR" INDICATES FEW OR NO CLOUDS BELOW 12,000 FEET WITH NO
SIGNIFICANT WEATHER AND/OR NO OBSTRUCTIONS TO VISIBILITY.

NYZ032-033-038>043-046>054-057>066-NYZ062>081-280500-
EAST


CITY           SKY/WX    TMP DP  RH WIND       PRES   REMARKS
ALBANY         CLOUDY    13   5  70 N9        29.88S WCI   1
GLENS FALLS    CLOUDY    16   1  51 NW6       29.87S WCI   7
POUGHKEEPSIE   CLOUDY    15   4  61 NW7       29.85R WCI   5
NEWBURGH       CLOUDY    12   7  79 NE8       29.82R WCI   1
MONTGOMERY     CLOUDY    13   6  74 NE6       29.82R WCI   4
WHITE PLAINS   CLOUDY    15   5  64 NW15      29.79R WCI   0
ISLIP          FLURRIES  18   9  68 NW25G33   29.77R WCI   0
NEW YORK CITY  CLOUDY    21  10  62 N15G21    29.83R WCI   8
CENTRAL PARK   CLOUDY    21   5  50 NW10G20   29.84R WCI  10
$$

NYZ005>009-017-018-044>046-055-056-280500-
CENTRAL


CITY           SKY/WX    TMP DP  RH WIND       PRES   REMARKS
FULTON         PTCLDY    14  -1  51 N5        30.03S WCI   6
SYRACUSE       MOCLDY    11  -2  56 NW7       30.03S WCI   0
ROME           CLOUDY    10  -5  50 W9        30.00S WCI  -3
ELMIRA         MOCLDY     9   1  70 W8        30.02R WCI  -3
BINGHAMTON     CLOUDY     8  -5  55 NW14      29.87S WCI  -8
MONTICELLO     CLOUDY    10   1  67 NW15G26   29.78R WCI  -6
$$

NYZ026>034-041>043-280500-
NORTH


CITY           SKY/WX    TMP DP  RH WIND       PRES   REMARKS
WATERTOWN      PTCLDY    -1  -7  75 CALM      30.04S
FORT DRUM      NOT AVBL
MASSENA        PTCLDY    11  -4  51 N8        30.04S WCI  -1
SARANAC LAKE   CLOUDY     5  -2  72 NW5       29.83S WCI  -4
PLATTSBURGH    LGT SNOW  11   5  77 N17       29.96F WCI  -6
$$

NYZ001>004-010>016-019>021-280500-
WEST


CITY           SKY/WX    TMP DP  RH WIND       PRES   REMARKS
NIAGARA FALLS  CLEAR     10   3  73 W3        30.11R
BUFFALO        PTCLDY    11   3  70 W3        30.10R
DUNKIRK        PTCLDY    14   7  73 NW6       30.13R WCI   5
JAMESTOWN      PTCLDY     9   3  78 N3        30.02R
WELLSVILLE     PTCLDY     7  -2  66 N5        29.96R WCI  -2
ROCHESTER      PTCLDY     3  -2  79 SW6       30.08S WCI  -8
PENN YAN       MOCLDY     9   0  67 W5        30.02S WCI   1
$$

             KEY
       WCI = WIND CHILL INDEX
       VSB = VISIBILITY
       HX  = HEAT INDEX
$$



USA.gov is the U.S. government's official web portal to all federal, state and local government web resources and services.